Weather Roundup
Issued by NWS Springfield, MO

Home | Current Version | Previous Version | Text Only | Print | Product List | Glossary On
Versions: 1 2 3 4 5 6 7 8 9 10 11 12 13 14 15 16 17 18 19 20 21 22 23 24 25 26 27 28 29 30 31 32 33 34 35 36 37 38 39 40 41 42 43 44 45 46 47 48 49 50
000
NZUS99 KSGF 241757
HRRSGF

HOURLY WEATHER
NATIONAL WEATHER SERVICE SPRINGFIELD MO
100 PM CDT SAT SEP 24 2016

......SGF CWA......

CITY           SKY/WX    TMP DP  RH WIND       PRES   REMARKS
SPRINGFIELD    MOSUNNY   88  67  49 VRB7      30.08F HX  91
6HR MIN TEMP:  69; 6HR MAX TEMP:  88;

JOPLIN         MOSUNNY   87  71  58 S13       30.06F HX  93
6HR MIN TEMP:  72; 6HR MAX TEMP:  87;

WEST PLAINS    SUNNY     86  65  49 VRB6      30.13F
6HR MIN TEMP:  63; 6HR MAX TEMP:  86;

ROLLA          SUNNY     84  69  60 SW6       30.10F
6HR MIN TEMP:  67; 6HR MAX TEMP:  86;

BRANSON        PTSUNNY   88  68  51 SE7       30.10F HX  91

......SURROUNDING SGF CWA......

CITY           SKY/WX    TMP DP  RH WIND       PRES   REMARKS
CHANUTE        SUNNY     88  70  55 S18       30.01F HX  93
PARSONS        CLOUDY    88  70  55 S10G21    30.02F HX  93
COFFEYVILLE    SUNNY     88  70  55 S18G25    30.01F HX  93
EMPORIA        MOSUNNY   85  73  67 S17G24    29.98F HX  91
HARRISON AR    SUNNY     87  69  54 VRB6      30.11S HX  91

......KANSAS AND MISSOURI......

CITY           SKY/WX    TMP DP  RH WIND       PRES   REMARKS
KANSAS CTY INT MOSUNNY   86  71  60 S15       30.02F HX  91
SEDALIA        MOSUNNY   88  72  58 S8        30.08F HX  94
ST JOSEPH      PTSUNNY   87  71  58 S17G23    29.99F HX  93
ST LOUIS       PTSUNNY   88  66  48 SE7       30.10F HX  90
WICHITA        LGT RAIN  77  70  79 S22G36    29.95F
TOPEKA         MOSUNNY   87  70  56 S14G24    29.97F HX  92
OLATHE         MOSUNNY   83  70  64 S12       30.03F

......TENNESSEE......

CITY           SKY/WX    TMP DP  RH WIND       PRES   REMARKS
MEMPHIS        NOT AVBL
NASHVILLE      MOSUNNY   89  62  40 NE9       30.12F

......ARKANSAS.......

CITY           SKY/WX    TMP DP  RH WIND       PRES   REMARKS
FAYETTEVILLE   SUNNY     86  71  60 S8        30.09S HX  91
FT SMITH       SUNNY     90  67  46 S10       30.04F HX  93
LITTLE ROCK    MOSUNNY   92  69  47 SE9       30.07F HX  97

......OKLAHOMA.......

CITY           SKY/WX    TMP DP  RH WIND       PRES   REMARKS
TULSA          MOSUNNY   90  70  51 S17G29    29.99F HX  95
PONCA CITY     CLOUDY    88  69  53 S13G22    29.96F HX  92
MCALESTER      PTSUNNY   87  70  56 S8G18     30.04F HX  92
OKLAHOMA CITY  PTSUNNY   85  71  63 S14G24    29.99F HX  90

......IOWA............

CITY           SKY/WX    TMP DP  RH WIND       PRES   REMARKS
DES MOINES     NOT AVBL
QUAD CITIES    CLOUDY    76  68  76 E9        30.13F HAZE

......ILLINOIS........

CITY           SKY/WX    TMP DP  RH WIND       PRES   REMARKS
QUINCY         NOT AVBL
CHICAGO        CLOUDY    70  62  76 NE9       30.19S




USA.gov is the U.S. government's official web portal to all federal, state and local government web resources and services.